Location: Unspecified
(0.0000°N, 0.0000°E)
Time: 19:40:50
(UTC+00:00)

Hubble Space Telescope - Pass Details

Date: 21 April 2018
Orbit: 537 x 540 km, 28.5° (Epoch: 11 November)

Event Time Altitude Azimuth Distance (km) Brightness Sun altitude
Rises 19:34:29 0° 261° (W) 2,675 5.5 -23.4°
Reaches altitude 10° 19:37:03 10° 275° (W) 1,784 4.5 -24.0°
Maximum altitude 19:40:28 25° 331° (NNW) 1,103 2.7 -24.8°
Enters shadow 19:41:48 21° 1° (N) 1,231 2.7 -25.2°
